RH
68 63 66 70 79 85 82 87 89 88 88 97 98 98 98 96 75 84 88 89 90 95 88 84 100 100 100 98 98 99 98 95 93 91 87 88 93 94
56 57 56 60 64 71 74 71 73 77 83 93 84 80 84 82 68 73 66 72 65 74 86 92 97 93 88 92 96 99 100 100 100 100 100 100 96 86
58 62 59 62 62 69 70 66 64 65 58 48 58 62 66 70 78 81 73 64 50 69 98 84 84 81 73 86 79 83 85 96 99 100 100 100 100 100
60 62 62 62 66 70 71 66 64 64 63 59 59 67 66 68 74 78 77 71 73 63 94 71 71 74 80 82 82 94 99 77 81 90 97 98 100 100
62 61 62 64 64 67 68 70 72 68 70 68 63 69 72 69 73 77 73 79 74 83 76 63 68 67 65 86 90 98 87 55 48 70 81 89 96 98
67 68 66 68 67 66 62 67 68 70 69 68 67 69 72 71 66 68 68 71 75 73 74 68 67 65 74 74 68 62 35 40 100 99 99 99 96 95
65 67 68 70 71 86 76 72 68 74 77 76 72 68 62 63 67 71 69 69 68 76 68 65 60 63 60 59 52 63 75 94 96 97 97 100 100 100
65 65 65 73 77 86 86 89 88 76 71 68 72 72 65 63 64 67 72 74 70 65 68 65 58 58 56 53 58 67 97 95 92 88 80 74 82 75
71 69 67 66 86 73 72 75 76 77 81 78 70 68 67 69 72 76 75 76 73 74 77 71 61 61 60 54 62 72 93 86 69 58 75 79 70 66
75 73 70 70 75 80 74 70 71 70 72 74 72 72 76 79 84 90 97 98 89 78 70 74 63 66 66 66 64 71 88 72 64 74 82 82 82 83
71 72 73 75 75 82 77 75 74 73 72 79 83 89 90 90 93 88 85 82 76 70 68 73 68 66 68 70 70 77 69 72 73 79 83 82 83 85
69 71 77 84 84 80 81 83 81 76 71 74 75 72 72 72 80 82 76 79 77 75 68 80 69 72 69 65 73 66 67 64 74 75 76 80 88 87
70 63 68 77 81 82 89 87 84 81 72 69 68 69 68 67 67 71 76 80 79 77 72 77 90 83 79 77 69 68 67 66 70 75 79 83 88 100
70 69 72 73 86 88 85 83 80 77 70 66 66 64 65 72 78 83 90 95 95 93 90 92 98 90 91 87 80 70 69 71 74 78 81 98 90 82
75 76 81 81 87 85 83 78 76 66 63 68 68 70 75 81 84 87 87 88 90 91 90 91 92 94 93 90 84 84 80 76 82 86 84 85 86 87
82 80 82 88 88 88 75 67 68 70 73 76 74 74 76 80 81 81 84 83 84 82 80 84 90 93 95 88 89 89 84 84 78 83 86 87 89 91
88 90 90 87 77 66 63 67 71 74 78 80 81 80 80 79 81 82 86 88 91 86 81 81 86 90 93 95 95 86 84 82 82 84 87 89 86 86
80 87 85 76 68 64 68 70 75 80 82 85 89 90 91 92 93 92 94 94 92 90 87 84 85 90 91 90 88 92 89 86 83 83 80 87 89 85
82 82 78 72 70 74 78 81 83 85 91 97 99 99 100 99 97 95 94 92 91 90 90 89 92 93 89 88 70 72 82 84 84 84 83 81 84 85
82 79 74 73 76 80 84 87 89 95 98 98 100 100 100 98 96 94 94 95 93 90 90 91 91 92 93 87 88 80 79 84 86 87 86 84 84 86
82 76 75 79 83 88 91 96 100 100 100 99 97 99 98 98 96 95 95 92 93 95 92 88 86 89 97 98 95 85 81 83 90 90 90 91 88 87
80 77 79 84 90 96 100 100 100 100 99 99 99 99 99 98 97 97 96 96 93 93 93 92 94 95 96 94 89 85 85 84 84 88 90 91 89 85
81 83 87 92 98 100 100 100 100 100 100 100 100 100 100 98 98 98 98 97 97 96 95 94 94 98 96 94 90 91 90 90 88 89 88 92 97 97
Wind_Speed
10 11 12 13 11 10 10 10 9 5 5 9 8 14 13 14 19 16 15 14 11 15 20 16 17 9 8 5 7 8 11 16 20 24 25 27 29 31
9 11 11 11 10 9 10 9 9 9 5 9 10 12 13 12 16 14 13 14 17 17 15 12 15 13 12 8 6 6 9 12 14 17 21 19 24 29
9 9 10 10 9 9 8 8 9 10 8 10 10 12 11 14 13 12 13 11 8 8 5 9 12 13 12 11 8 8 10 11 11 13 16 20 21 24
7 8 9 10 9 9 8 8 7 6 7 8 10 13 12 13 14 12 9 9 8 7 6 10 11 13 11 11 9 7 7 11 12 13 13 17 20 24
6 6 7 9 9 9 9 9 8 7 7 8 9 9 10 12 13 10 9 9 8 4 6 11 13 11 11 11 11 9 11 11 12 14 14 15 18 21
5 6 6 7 8 10 10 10 10 10 9 9 9 9 7 8 9 12 14 13 14 6 8 12 14 13 10 11 11 14 15 11 12 8 9 9 13 17
7 6 6 8 8 8 9 10 11 10 11 13 13 14 12 14 14 14 14 16 15 6 14 15 17 15 11 12 13 17 16 10 10 11 14 15 13 17
9 10 8 8 7 8 8 8 8 10 12 13 12 12 15 14 14 14 15 15 7 7 19 20 15 15 14 13 18 18 13 10 14 14 17 18 18 18
9 10 10 8 8 9 11 11 11 11 11 13 15 15 17 16 16 17 16 17 15 17 18 18 16 16 16 17 20 18 9 12 19 19 20 18 21 22
10 9 10 10 8 10 12 13 13 13 12 11 13 15 15 15 15 15 15 17 16 17 14 14 17 18 19 21 18 14 10 18 22 22 19 20 22 23
11 10 10 11 10 11 12 13 14 15 14 13 15 16 16 15 14 15 15 16 15 16 17 16 15 20 21 20 14 8 19 20 21 22 22 22 22 22
10 10 10 11 13 12 12 13 15 16 17 17 17 16 15 16 16 15 16 15 15 12 7 5 13 15 7 11 8 24 20 23 21 21 23 22 18 19
11 11 11 13 14 14 14 14 13 17 21 20 17 16 15 15 13 12 12 13 15 16 18 16 9 15 14 18 20 22 24 20 23 24 18 18 19 14
14 12 13 14 16 16 15 13 17 17 16 15 15 15 13 12 12 11 12 14 15 18 18 17 14 16 18 20 19 21 21 23 22 21 23 16 17 20
14 14 16 17 16 16 14 16 15 12 12 12 13 14 14 14 15 17 16 15 16 18 19 19 21 21 20 21 21 27 25 21 23 17 15 21 21 21
13 14 14 15 16 17 16 11 9 9 10 13 15 15 16 15 15 14 14 15 16 18 17 18 20 20 21 21 20 24 23 15 20 21 21 21 21 19
12 14 13 12 14 14 12 10 10 10 12 13 14 16 16 15 16 15 15 16 16 17 18 16 15 18 20 21 22 25 26 23 22 20 18 21 20 19
13 14 13 14 14 14 12 11 11 12 13 14 15 15 16 16 16 16 16 16 16 17 18 18 17 17 18 22 25 27 24 22 20 19 18 20 22 19
14 13 14 14 14 13 12 12 14 13 14 15 16 16 17 18 18 17 17 17 17 18 19 18 16 15 9 11 17 17 22 21 20 17 19 21 25 22
13 14 14 14 13 13 12 13 14 15 15 16 17 18 19 20 19 19 18 18 18 19 19 18 18 18 12 13 12 22 21 24 23 23 22 22 27 25
12 13 13 14 13 13 13 14 15 16 17 19 20 20 20 19 20 20 20 22 22 20 18 20 20 19 21 20 15 21 24 23 26 27 21 20 23 22
12 13 13 13 13 13 13 13 15 16 17 18 20 21 22 20 21 22 21 21 20 19 21 22 19 18 17 17 15 23 23 23 20 21 25 29 18 6
13 12 13 13 13 13 13 14 16 17 18 20 22 22 22 22 22 23 24 24 23 21 20 20 18 16 19 20 22 22 24 23 20 19 22 24 30 36
Wind_Direction
353 356 1 9 8 5 2 358 349 323 360 33 9 13 16 3 8 11 21 22 358 3 357 340 349 354 349 305 289 301 289 270 259 255 252 250 249 249
359 359 2 1 4 10 8 4 359 330 300 21 0 5 12 12 13 12 6 8 0 353 356 354 329 317 321 327 336 330 299 296 278 266 255 255 256 255
2 3 2 3 5 10 15 15 10 2 331 336 347 354 6 12 13 12 12 5 9 345 352 358 335 329 344 338 326 303 303 297 298 292 282 270 260 251
5 1 0 360 1 3 2 5 6 7 356 339 338 351 353 1 1 1 6 359 359 337 342 347 343 337 336 342 335 340 316 306 300 287 286 282 278 268
350 359 357 355 354 352 348 343 341 344 346 334 335 341 342 345 346 349 348 355 357 330 326 335 340 337 332 338 347 344 330 322 315 309 289 281 284 279
329 336 344 345 340 338 337 337 333 327 327 326 325 325 324 326 329 343 344 348 341 330 334 336 332 342 340 342 340 338 323 329 347 351 320 313 297 291
307 314 319 319 321 329 330 330 329 329 323 320 319 322 324 334 340 337 333 332 332 322 334 336 336 333 329 329 335 336 331 333 325 323 325 326 325 293
305 308 310 316 319 323 324 319 314 315 310 309 305 302 305 318 317 320 319 320 325 326 330 321 325 320 318 322 324 326 330 325 326 319 307 316 313 307
296 300 304 302 313 317 314 308 302 300 293 292 290 291 300 304 308 307 305 301 299 306 314 309 318 308 316 315 318 315 301 313 327 318 319 314 311 305
286 287 289 291 297 314 312 307 302 300 295 292 288 289 290 293 291 301 303 301 293 295 305 295 314 309 313 312 311 307 304 319 321 320 313 312 316 307
280 285 283 286 293 303 305 300 298 296 295 288 291 287 285 287 291 297 289 293 293 296 298 295 303 311 310 305 310 300 315 317 316 313 310 310 310 308
277 281 276 285 300 297 297 296 298 300 303 301 298 289 287 284 282 277 278 279 284 297 294 272 301 318 309 294 298 312 311 312 311 311 307 304 304 308
277 282 285 287 299 294 295 296 295 301 297 294 291 289 289 285 282 276 271 270 272 266 268 286 284 290 279 294 295 298 301 302 307 310 310 308 307 300
274 278 282 287 291 293 292 288 297 298 293 291 290 288 288 288 286 282 279 272 266 265 271 270 273 275 281 287 292 296 295 298 302 302 305 309 307 305
267 276 284 289 291 291 283 290 296 290 288 287 287 288 286 285 285 283 278 275 273 271 270 269 267 271 271 275 283 288 299 299 294 292 303 307 305 306
271 279 283 286 287 285 288 290 286 278 277 278 280 284 288 288 286 285 282 283 282 281 274 269 269 271 274 272 275 279 283 284 285 290 294 296 297 296
274 279 278 282 287 287 286 287 283 280 280 281 285 288 287 287 286 286 281 282 277 280 283 279 268 263 263 267 274 274 280 279 281 288 292 289 288 289
275 274 273 278 280 282 285 286 284 287 285 287 286 284 284 284 283 282 277 273 272 274 277 280 280 277 273 266 258 264 268 274 281 288 289 287 288 287
266 269 272 274 274 277 279 284 290 291 289 284 281 279 279 278 278 277 275 273 271 271 271 273 270 267 273 274 270 260 262 270 282 277 278 276 280 285
255 263 266 268 270 273 277 282 286 287 285 284 280 279 275 272 274 272 271 266 266 269 271 267 260 257 255 266 278 277 267 273 272 276 280 279 277 284
252 258 259 264 267 272 276 279 281 282 282 283 281 277 275 271 268 268 267 270 270 264 261 262 261 265 262 265 265 269 271 265 256 262 271 275 282 287
251 254 259 263 268 272 275 279 281 281 284 284 280 280 276 271 267 267 264 263 263 259 260 265 270 269 262 255 264 273 277 277 272 265 258 252 251 269
251 251 256 263 269 270 275 278 281 280 282 284 283 281 280 275 273 269 263 260 260 259 258 263 262 254 251 250 259 269 274 277 277 274 266 258 255 257